Time,TemperatureF,DewpointF,PressureIn,WindDirection,WindDirectionDegrees,WindSpeedMPH,WindSpeedGustMPH,Humidity,HourlyPrecipIn,Conditions,Clouds,dailyrainin,SoftwareType,DateUTC
2013-05-16 00:05:00,61.4,60.0,29.77,East,83,11.0,11.0,95,0.05,,,0.00,Wunderground v.1.15,2013-05-16 05:05:00,
2013-05-16 00:11:00,61.4,60.0,29.78,ESE,119,7.0,16.0,94,0.02,,,0.00,weatherlink.com 1.10,2013-05-16 05:11:00,
2013-05-16 00:20:00,61.5,60.1,29.79,SE,142,5.0,6.0,95,0.00,,,0.00,Wunderground v.1.15,2013-05-16 05:20:00,
2013-05-16 00:25:00,61.5,60.1,29.78,SE,132,6.0,6.0,95,0.00,,,0.00,Wunderground v.1.15,2013-05-16 05:25:00,
2013-05-16 00:26:00,61.5,60.0,29.79,SSE,149,6.0,12.0,95,0.02,,,0.00,weatherlink.com 1.10,2013-05-16 05:26:00,
2013-05-16 00:35:00,61.6,60.2,29.77,SE,146,6.0,10.0,95,0.00,,,0.00,Wunderground v.1.15,2013-05-16 05:35:00,
2013-05-16 00:40:00,61.6,60.2,29.76,ESE,121,7.0,14.0,95,0.00,,,0.00,Wunderground v.1.15,2013-05-16 05:40:00,
2013-05-16 00:41:00,61.6,60.0,29.76,SSE,151,7.0,16.0,95,0.02,,,0.00,weatherlink.com 1.10,2013-05-16 05:41:00,
2013-05-16 00:50:00,61.6,60.2,29.78,SSE,161,7.0,11.0,95,0.00,,,0.00,Wunderground v.1.15,2013-05-16 05:50:00,
2013-05-16 00:55:00,61.7,60.3,29.78,SE,138,7.0,11.0,95,0.00,,,0.00,Wunderground v.1.15,2013-05-16 05:55:00,
2013-05-16 00:56:00,61.7,60.0,29.78,East,90,8.0,13.0,95,0.00,,,0.00,weatherlink.com 1.10,2013-05-16 05:56:00,
2013-05-16 01:05:00,61.7,60.0,29.77,SE,130,7.0,10.0,94,0.00,,,0.00,Wunderground v.1.15,2013-05-16 06:05:00,
2013-05-16 01:10:00,61.8,60.1,29.76,SE,129,7.0,7.0,94,0.00,,,0.00,Wunderground v.1.15,2013-05-16 06:10:00,
2013-05-16 01:11:00,61.8,60.0,29.77,SSE,168,9.0,13.0,94,0.00,,,0.00,weatherlink.com 1.10,2013-05-16 06:11:00,
2013-05-16 01:20:00,62.0,60.3,29.76,SE,139,7.0,7.0,94,0.00,,,0.00,Wunderground v.1.15,2013-05-16 06:20:00,
2013-05-16 01:25:00,62.0,60.3,29.77,ESE,122,5.0,7.0,94,0.00,,,0.00,Wunderground v.1.15,2013-05-16 06:25:00,
2013-05-16 01:26:00,62.1,61.0,29.77,ESE,122,3.0,12.0,95,0.00,,,0.00,weatherlink.com 1.10,2013-05-16 06:26:00,
2013-05-16 01:35:00,62.3,60.8,29.76,SSE,155,5.0,10.0,95,0.20,,,0.04,Wunderground v.1.15,2013-05-16 06:35:00,
2013-05-16 01:40:00,62.4,60.9,29.78,South,177,6.0,6.0,95,0.08,,,0.04,Wunderground v.1.15,2013-05-16 06:40:00,
2013-05-16 01:41:00,62.4,61.0,29.78,SSE,165,5.0,11.0,95,0.04,,,0.04,weatherlink.com 1.10,2013-05-16 06:41:00,
2013-05-16 01:50:00,62.5,61.0,29.76,SSE,164,4.0,5.0,95,0.00,,,0.04,Wunderground v.1.15,2013-05-16 06:50:00,
2013-05-16 01:55:00,62.5,61.0,29.75,SE,140,5.0,5.0,95,0.24,,,0.07,Wunderground v.1.15,2013-05-16 06:55:00,
2013-05-16 01:56:00,62.5,61.0,29.76,SE,138,4.0,10.0,95,0.07,,,0.07,weatherlink.com 1.10,2013-05-16 06:56:00,
2013-05-16 02:05:00,62.5,61.0,29.78,SW,218,5.0,5.0,95,0.83,,,0.08,Wunderground v.1.15,2013-05-16 07:05:00,
2013-05-16 02:10:00,62.5,61.0,29.78,North,355,4.0,4.0,95,1.45,,,0.22,Wunderground v.1.15,2013-05-16 07:10:00,
2013-05-16 02:11:00,62.5,61.0,29.77,North,355,1.0,7.0,95,0.24,,,0.24,weatherlink.com 1.10,2013-05-16 07:11:00,
2013-05-16 02:20:00,62.3,60.8,29.75,SE,144,3.0,7.0,95,0.72,,,0.38,Wunderground v.1.15,2013-05-16 07:20:00,
2013-05-16 02:26:00,62.0,61.0,29.73,SE,136,7.0,15.0,95,0.41,,,0.41,weatherlink.com 1.10,2013-05-16 07:26:00,
2013-05-16 02:35:00,61.9,60.5,29.76,NNE,24,6.0,8.0,95,0.05,,,0.41,Wunderground v.1.15,2013-05-16 07:35:00,
2013-05-16 02:40:00,62.0,60.6,29.77,North,5,5.0,5.0,95,0.04,,,0.42,Wunderground v.1.15,2013-05-16 07:40:00,
2013-05-16 02:42:00,62.0,61.0,29.78,ENE,76,1.0,10.0,95,0.38,,,0.42,weatherlink.com 1.10,2013-05-16 07:42:00,
2013-05-16 02:50:00,62.2,60.8,29.77,SSE,167,4.0,4.0,95,0.04,,,0.42,Wunderground v.1.15,2013-05-16 07:50:00,
2013-05-16 02:55:00,62.2,60.8,29.78,West,279,2.0,4.0,95,0.04,,,0.42,Wunderground v.1.15,2013-05-16 07:55:00,
2013-05-16 02:57:00,62.2,61.0,29.77,West,279,0.0,6.0,95,0.35,,,0.42,weatherlink.com 1.10,2013-05-16 07:57:00,
2013-05-16 03:00:00,62.2,60.5,29.76,West,278,1.0,3.0,94,0.00,,,0.42,Wunderground v.1.15,2013-05-16 08:00:00,
2013-05-16 03:05:00,62.4,60.7,29.75,South,175,3.0,7.0,94,0.00,,,0.42,Wunderground v.1.15,2013-05-16 08:05:00,
2013-05-16 03:10:00,62.6,60.8,29.75,SSE,167,5.0,6.0,94,0.00,,,0.42,Wunderground v.1.15,2013-05-16 08:10:00,
2013-05-16 03:12:00,62.6,61.0,29.75,SE,144,3.0,9.0,94,0.14,,,0.42,weatherlink.com 1.10,2013-05-16 08:12:00,
2013-05-16 03:20:00,62.6,60.8,29.76,NE,40,4.0,4.0,94,0.00,,,0.42,Wunderground v.1.15,2013-05-16 08:20:00,
2013-05-16 03:25:00,62.6,60.8,29.77,NNE,33,4.0,4.0,94,0.00,,,0.42,Wunderground v.1.15,2013-05-16 08:25:00,
2013-05-16 03:27:00,62.6,61.0,29.77,NNE,32,6.0,6.0,94,0.01,,,0.42,weatherlink.com 1.10,2013-05-16 08:27:00,
2013-05-16 03:35:00,62.5,60.7,29.77,NE,44,3.0,4.0,94,0.00,,,0.42,Wunderground v.1.15,2013-05-16 08:35:00,
2013-05-16 03:40:00,62.5,60.7,29.79,NNE,28,1.0,3.0,94,0.00,,,0.42,Wunderground v.1.15,2013-05-16 08:40:00,
2013-05-16 03:42:00,62.5,61.0,29.80,NNW,328,5.0,6.0,94,0.00,,,0.42,weatherlink.com 1.10,2013-05-16 08:42:00,
2013-05-16 03:50:00,62.5,60.7,29.82,NNW,331,7.0,7.0,94,0.00,,,0.42,Wunderground v.1.15,2013-05-16 08:50:00,
2013-05-16 03:57:00,62.6,61.0,29.80,North,355,0.0,17.0,94,0.01,,,0.43,weatherlink.com 1.10,2013-05-16 08:57:00,
2013-05-16 04:00:00,62.6,60.8,29.81,North,355,1.0,1.0,94,0.13,,,0.44,Wunderground v.1.15,2013-05-16 09:00:00,
2013-05-16 04:10:00,62.9,61.1,29.77,ESE,119,2.0,5.0,94,0.21,,,0.47,Wunderground v.1.15,2013-05-16 09:10:00,
2013-05-16 04:12:00,62.7,61.0,29.77,SE,136,7.0,9.0,94,0.06,,,0.48,weatherlink.com 1.10,2013-05-16 09:12:00,
2013-05-16 04:15:00,62.5,60.4,29.76,SE,139,5.0,9.0,93,0.15,,,0.48,Wunderground v.1.15,2013-05-16 09:15:00,
2013-05-16 04:20:00,62.6,60.5,29.74,SE,140,8.0,10.0,93,0.07,,,0.48,Wunderground v.1.15,2013-05-16 09:20:00,
2013-05-16 04:25:00,62.7,60.6,29.74,South,171,9.0,11.0,93,0.04,,,0.48,Wunderground v.1.15,2013-05-16 09:25:00,
2013-05-16 04:29:00,62.9,61.0,29.74,SSE,154,12.0,16.0,93,0.06,,,0.48,weatherlink.com 1.10,2013-05-16 09:29:00,
2013-05-16 04:30:00,62.9,60.8,29.73,ESE,115,10.0,10.0,93,0.00,,,0.48,Wunderground v.1.15,2013-05-16 09:30:00,
2013-05-16 04:40:00,62.9,60.5,29.74,SSE,161,9.0,10.0,92,0.00,,,0.48,Wunderground v.1.15,2013-05-16 09:40:00,
2013-05-16 04:43:00,62.9,61.0,29.75,SSE,167,9.0,15.0,92,0.06,,,0.48,weatherlink.com 1.10,2013-05-16 09:43:00,
2013-05-16 04:50:00,63.0,60.6,29.76,SSE,162,8.0,8.0,92,0.00,,,0.48,Wunderground v.1.15,2013-05-16 09:50:00,
2013-05-16 04:55:00,62.9,60.5,29.76,South,188,7.0,8.0,92,0.00,,,0.48,Wunderground v.1.15,2013-05-16 09:55:00,
2013-05-16 04:59:00,62.8,61.0,29.76,SSE,156,6.0,13.0,92,0.04,,,0.48,weatherlink.com 1.10,2013-05-16 09:59:00,
2013-05-16 05:05:00,62.7,60.6,29.75,SSE,150,6.0,6.0,93,0.00,,,0.48,Wunderground v.1.15,2013-05-16 10:05:00,
2013-05-16 05:14:00,62.7,61.0,29.77,SSE,167,6.0,11.0,93,0.00,,,0.48,weatherlink.com 1.10,2013-05-16 10:14:00,
2013-05-16 05:20:00,62.7,60.6,29.77,SSE,151,5.0,5.0,93,0.00,,,0.48,Wunderground v.1.15,2013-05-16 10:20:00,
2013-05-16 05:25:00,62.7,60.6,29.76,SE,126,4.0,5.0,93,0.00,,,0.48,Wunderground v.1.15,2013-05-16 10:25:00,
2013-05-16 05:29:00,62.6,61.0,29.76,SE,140,3.0,7.0,93,0.00,,,0.48,weatherlink.com 1.10,2013-05-16 10:29:00,
2013-05-16 05:35:00,62.6,60.5,29.77,SSE,156,3.0,4.0,93,0.00,,,0.48,Wunderground v.1.15,2013-05-16 10:35:00,
2013-05-16 05:40:00,62.5,60.4,29.78,SSE,156,2.0,2.0,93,0.00,,,0.48,Wunderground v.1.15,2013-05-16 10:40:00,
2013-05-16 05:43:00,62.5,61.0,29.79,SSE,156,3.0,4.0,93,0.00,,,0.48,weatherlink.com 1.10,2013-05-16 10:43:00,
2013-05-16 05:50:00,62.5,60.4,29.79,SSE,157,1.0,2.0,93,0.00,,,0.48,Wunderground v.1.15,2013-05-16 10:50:00,
2013-05-16 05:55:00,62.5,60.7,29.78,SSE,157,2.0,5.0,94,0.00,,,0.48,Wunderground v.1.15,2013-05-16 10:55:00,
2013-05-16 05:59:00,62.5,61.0,29.77,SSE,150,8.0,10.0,94,0.00,,,0.48,weatherlink.com 1.10,2013-05-16 10:59:00,
2013-05-16 06:05:00,62.4,60.7,29.77,SSE,163,6.0,8.0,94,0.00,,,0.48,Wunderground v.1.15,2013-05-16 11:05:00,
2013-05-16 06:10:00,62.4,60.7,29.76,SSE,155,6.0,6.0,94,0.00,,,0.48,Wunderground v.1.15,2013-05-16 11:10:00,
2013-05-16 06:14:00,62.3,61.0,29.76,South,170,5.0,12.0,94,0.00,,,0.48,weatherlink.com 1.10,2013-05-16 11:14:00,
2013-05-16 06:20:00,62.3,60.6,29.77,SE,141,6.0,8.0,94,0.00,,,0.48,Wunderground v.1.15,2013-05-16 11:20:00,
2013-05-16 06:29:00,62.3,61.0,29.77,South,175,6.0,10.0,94,0.00,,,0.48,weatherlink.com 1.10,2013-05-16 11:29:00,
2013-05-16 06:35:00,62.3,60.6,29.77,South,187,6.0,7.0,94,0.00,,,0.48,Wunderground v.1.15,2013-05-16 11:35:00,
2013-05-16 06:40:00,62.3,60.6,29.78,SE,126,5.0,6.0,94,0.00,,,0.48,Wunderground v.1.15,2013-05-16 11:40:00,
2013-05-16 06:44:00,62.3,61.0,29.79,SSE,150,5.0,9.0,94,0.00,,,0.48,weatherlink.com 1.10,2013-05-16 11:44:00,
2013-05-16 06:50:00,62.3,60.6,29.79,SSE,150,3.0,3.0,94,0.00,,,0.48,Wunderground v.1.15,2013-05-16 11:50:00,
2013-05-16 06:55:00,62.3,60.6,29.80,ESE,110,2.0,3.0,94,0.00,,,0.48,Wunderground v.1.15,2013-05-16 11:55:00,
2013-05-16 06:59:00,62.3,61.0,29.80,ESE,107,4.0,5.0,94,0.00,,,0.48,weatherlink.com 1.10,2013-05-16 11:59:00,
2013-05-16 07:05:00,62.4,60.7,29.80,ESE,105,3.0,4.0,94,0.00,,,0.48,Wunderground v.1.15,2013-05-16 12:05:00,
2013-05-16 07:10:00,62.4,60.7,29.80,ESE,121,3.0,3.0,94,0.00,,,0.48,Wunderground v.1.15,2013-05-16 12:10:00,
2013-05-16 07:14:00,62.5,61.0,29.80,SE,125,1.0,5.0,94,0.00,,,0.48,weatherlink.com 1.10,2013-05-16 12:14:00,
2013-05-16 07:20:00,62.5,60.7,29.81,East,93,3.0,5.0,94,0.00,,,0.48,Wunderground v.1.15,2013-05-16 12:20:00,
2013-05-16 07:25:00,62.5,60.7,29.81,East,92,3.0,5.0,94,0.00,,,0.48,Wunderground v.1.15,2013-05-16 12:25:00,
2013-05-16 07:29:00,62.6,61.0,29.81,East,89,3.0,7.0,94,0.00,,,0.48,weatherlink.com 1.10,2013-05-16 12:29:00,
2013-05-16 07:35:00,62.6,60.8,29.80,SE,133,4.0,5.0,94,0.00,,,0.48,Wunderground v.1.15,2013-05-16 12:35:00,
2013-05-16 07:40:00,62.5,60.7,29.79,SE,128,5.0,6.0,94,0.00,,,0.48,Wunderground v.1.15,2013-05-16 12:40:00,
2013-05-16 07:45:00,62.5,60.7,29.79,SE,126,5.0,6.0,94,0.00,,,0.48,Wunderground v.1.15,2013-05-16 12:45:00,
2013-05-16 07:46:00,62.5,61.0,29.79,SE,139,4.0,10.0,94,0.00,,,0.48,weatherlink.com 1.10,2013-05-16 12:46:00,
2013-05-16 07:55:00,62.5,60.7,29.78,ESE,113,5.0,5.0,94,0.00,,,0.48,Wunderground v.1.15,2013-05-16 12:55:00,
2013-05-16 07:59:00,62.5,61.0,29.77,SSE,147,7.0,9.0,94,0.00,,,0.48,weatherlink.com 1.10,2013-05-16 12:59:00,
2013-05-16 08:05:00,62.6,60.8,29.78,SE,127,5.0,7.0,94,0.00,,,0.48,Wunderground v.1.15,2013-05-16 13:05:00,
2013-05-16 08:10:00,62.7,60.9,29.78,ESE,116,4.0,4.0,94,0.00,,,0.48,Wunderground v.1.15,2013-05-16 13:10:00,
2013-05-16 08:14:00,62.7,61.0,29.78,SSE,159,2.0,7.0,94,0.00,,,0.48,weatherlink.com 1.10,2013-05-16 13:14:00,
2013-05-16 08:20:00,62.9,61.1,29.79,SE,134,4.0,4.0,94,0.00,,,0.48,Wunderground v.1.15,2013-05-16 13:20:00,
2013-05-16 08:25:00,63.0,61.2,29.79,SE,136,3.0,4.0,94,0.00,,,0.48,Wunderground v.1.15,2013-05-16 13:25:00,
2013-05-16 08:29:00,63.1,61.0,29.79,SE,136,3.0,7.0,94,0.00,,,0.48,weatherlink.com 1.10,2013-05-16 13:29:00,
2013-05-16 08:35:00,63.2,61.4,29.80,East,96,2.0,3.0,94,0.00,,,0.48,Wunderground v.1.15,2013-05-16 13:35:00,
2013-05-16 08:40:00,63.2,61.4,29.80,East,85,3.0,5.0,94,0.00,,,0.48,Wunderground v.1.15,2013-05-16 13:40:00,
2013-05-16 08:44:00,63.3,62.0,29.80,ESE,110,4.0,8.0,94,0.00,,,0.48,weatherlink.com 1.10,2013-05-16 13:44:00,
2013-05-16 08:50:00,63.3,61.5,29.80,ESE,103,4.0,4.0,94,0.00,,,0.48,Wunderground v.1.15,2013-05-16 13:50:00,
2013-05-16 08:55:00,63.4,61.6,29.80,SE,138,5.0,5.0,94,0.00,,,0.48,Wunderground v.1.15,2013-05-16 13:55:00,
2013-05-16 08:59:00,63.4,62.0,29.80,ESE,123,2.0,8.0,94,0.00,,,0.48,weatherlink.com 1.10,2013-05-16 13:59:00,
2013-05-16 09:05:00,63.4,61.6,29.80,SE,129,3.0,5.0,94,0.00,,,0.48,Wunderground v.1.15,2013-05-16 14:05:00,
2013-05-16 09:10:00,63.4,61.6,29.80,East,98,4.0,6.0,94,0.00,,,0.48,Wunderground v.1.15,2013-05-16 14:10:00,
2013-05-16 09:14:00,63.5,62.0,29.81,ESE,113,4.0,7.0,94,0.00,,,0.48,weatherlink.com 1.10,2013-05-16 14:14:00,
2013-05-16 09:20:00,63.6,61.8,29.81,SE,143,3.0,3.0,94,0.00,,,0.48,Wunderground v.1.15,2013-05-16 14:20:00,
2013-05-16 09:25:00,63.6,61.5,29.81,SE,129,4.0,5.0,93,0.00,,,0.48,Wunderground v.1.15,2013-05-16 14:25:00,
2013-05-16 09:30:00,63.5,61.7,29.81,SE,128,4.0,4.0,94,0.00,,,0.48,Wunderground v.1.15,2013-05-16 14:30:00,
2013-05-16 09:31:00,63.5,62.0,29.81,SE,130,4.0,7.0,94,0.00,,,0.48,weatherlink.com 1.10,2013-05-16 14:31:00,
2013-05-16 09:35:00,63.5,61.4,29.81,ESE,115,4.0,4.0,93,0.00,,,0.48,Wunderground v.1.15,2013-05-16 14:35:00,
2013-05-16 09:45:00,63.6,61.5,29.81,ESE,115,4.0,5.0,93,0.00,,,0.48,Wunderground v.1.15,2013-05-16 14:45:00,
2013-05-16 09:46:00,63.6,62.0,29.82,ESE,108,4.0,10.0,93,0.00,,,0.48,weatherlink.com 1.10,2013-05-16 14:46:00,
2013-05-16 09:55:00,63.7,61.6,29.82,ESE,107,4.0,7.0,93,0.00,,,0.48,Wunderground v.1.15,2013-05-16 14:55:00,
2013-05-16 10:01:00,63.7,62.0,29.82,ESE,112,8.0,10.0,93,0.00,,,0.48,weatherlink.com 1.10,2013-05-16 15:01:00,
2013-05-16 10:10:00,63.6,61.5,29.82,East,101,5.0,5.0,93,0.00,,,0.48,Wunderground v.1.15,2013-05-16 15:10:00,
2013-05-16 10:16:00,63.7,62.0,29.82,East,101,3.0,9.0,93,0.00,,,0.48,weatherlink.com 1.10,2013-05-16 15:16:00,
2013-05-16 10:25:00,63.5,61.4,29.82,East,100,5.0,6.0,93,0.00,,,0.48,Wunderground v.1.15,2013-05-16 15:25:00,
2013-05-16 10:30:00,63.5,61.4,29.83,SE,136,5.0,5.0,93,0.00,,,0.48,Wunderground v.1.15,2013-05-16 15:30:00,
2013-05-16 10:31:00,63.5,62.0,29.82,East,86,3.0,9.0,93,0.00,,,0.48,weatherlink.com 1.10,2013-05-16 15:31:00,
2013-05-16 10:40:00,63.6,61.5,29.83,East,82,4.0,5.0,93,0.00,,,0.48,Wunderground v.1.15,2013-05-16 15:40:00,
2013-05-16 10:45:00,63.6,61.5,29.82,ESE,117,4.0,5.0,93,0.00,,,0.48,Wunderground v.1.15,2013-05-16 15:45:00,
2013-05-16 10:46:00,63.6,62.0,29.82,ESE,109,2.0,8.0,93,0.00,,,0.48,weatherlink.com 1.10,2013-05-16 15:46:00,
2013-05-16 10:55:00,63.7,61.6,29.82,ESE,117,3.0,4.0,93,0.00,,,0.48,Wunderground v.1.15,2013-05-16 15:55:00,
2013-05-16 11:01:00,63.9,62.0,29.82,East,101,3.0,6.0,94,0.00,,,0.48,weatherlink.com 1.10,2013-05-16 16:01:00,
2013-05-16 11:05:00,64.0,61.9,29.82,East,101,2.0,3.0,93,0.00,,,0.48,Wunderground v.1.15,2013-05-16 16:05:00,
2013-05-16 11:10:00,64.0,62.2,29.83,East,90,3.0,7.0,94,0.00,,,0.48,Wunderground v.1.15,2013-05-16 16:10:00,
2013-05-16 11:15:00,64.0,62.2,29.83,East,99,4.0,7.0,94,0.00,,,0.48,Wunderground v.1.15,2013-05-16 16:15:00,
2013-05-16 11:16:00,64.1,62.0,29.83,ESE,102,5.0,8.0,94,0.00,,,0.48,weatherlink.com 1.10,2013-05-16 16:16:00,
2013-05-16 11:25:00,64.1,62.3,29.83,ESE,108,4.0,7.0,94,0.00,,,0.48,Wunderground v.1.15,2013-05-16 16:25:00,
2013-05-16 11:31:00,64.1,62.0,29.83,East,94,3.0,9.0,94,0.00,,,0.48,weatherlink.com 1.10,2013-05-16 16:31:00,
2013-05-16 11:40:00,64.1,62.3,29.83,East,84,4.0,5.0,94,0.00,,,0.48,Wunderground v.1.15,2013-05-16 16:40:00,
2013-05-16 11:45:00,64.1,62.3,29.83,ESE,110,5.0,9.0,94,0.00,,,0.48,Wunderground v.1.15,2013-05-16 16:45:00,
2013-05-16 11:46:00,64.1,62.0,29.83,ESE,107,4.0,9.0,94,0.00,,,0.48,weatherlink.com 1.10,2013-05-16 16:46:00,
2013-05-16 11:50:00,64.1,62.3,29.83,ESE,110,4.0,5.0,94,0.00,,,0.48,Wunderground v.1.15,2013-05-16 16:50:00,
2013-05-16 11:55:00,64.1,62.6,29.83,ESE,117,4.0,5.0,95,0.00,,,0.48,Wunderground v.1.15,2013-05-16 16:55:00,
2013-05-16 12:00:00,64.2,62.7,29.83,SE,141,3.0,4.0,95,0.00,,,0.48,Wunderground v.1.15,2013-05-16 17:00:00,
2013-05-16 12:01:00,64.2,63.0,29.83,East,97,3.0,7.0,95,0.00,,,0.48,weatherlink.com 1.10,2013-05-16 17:01:00,
2013-05-16 12:10:00,64.2,62.7,29.83,ESE,111,4.0,4.0,95,0.00,,,0.48,Wunderground v.1.15,2013-05-16 17:10:00,
2013-05-16 12:15:00,64.3,62.8,29.83,ESE,104,4.0,4.0,95,0.00,,,0.48,Wunderground v.1.15,2013-05-16 17:15:00,
2013-05-16 12:16:00,64.2,63.0,29.83,East,89,3.0,9.0,95,0.00,,,0.48,weatherlink.com 1.10,2013-05-16 17:16:00,
2013-05-16 12:25:00,64.1,62.6,29.83,SE,129,6.0,8.0,95,0.00,,,0.48,Wunderground v.1.15,2013-05-16 17:25:00,
2013-05-16 12:30:00,64.2,62.7,29.83,ESE,103,5.0,5.0,95,0.00,,,0.48,Wunderground v.1.15,2013-05-16 17:30:00,
2013-05-16 12:32:00,64.3,63.0,29.82,East,92,5.0,10.0,95,0.00,,,0.48,weatherlink.com 1.10,2013-05-16 17:32:00,
2013-05-16 12:40:00,64.0,62.5,29.83,East,84,5.0,10.0,95,0.00,,,0.48,Wunderground v.1.15,2013-05-16 17:40:00,
2013-05-16 12:45:00,64.1,62.6,29.82,East,82,5.0,10.0,95,0.00,,,0.48,Wunderground v.1.15,2013-05-16 17:45:00,
2013-05-16 12:47:00,64.2,63.0,29.82,East,98,5.0,10.0,95,0.00,,,0.48,weatherlink.com 1.10,2013-05-16 17:47:00,
2013-05-16 12:55:00,64.3,62.8,29.82,ESE,119,5.0,8.0,95,0.00,,,0.48,Wunderground v.1.15,2013-05-16 17:55:00,
2013-05-16 13:00:00,64.3,63.1,29.82,ESE,107,4.0,4.0,96,0.00,,,0.48,Wunderground v.1.15,2013-05-16 18:00:00,
2013-05-16 13:02:00,64.3,63.0,29.82,ESE,107,3.0,9.0,96,0.00,,,0.48,weatherlink.com 1.10,2013-05-16 18:02:00,
2013-05-16 13:15:00,64.3,63.1,29.82,East,89,5.0,7.0,96,0.00,,,0.48,Wunderground v.1.15,2013-05-16 18:15:00,
2013-05-16 13:17:00,64.4,63.0,29.82,East,92,7.0,8.0,96,0.00,,,0.48,weatherlink.com 1.10,2013-05-16 18:17:00,
2013-05-16 13:25:00,64.4,63.2,29.82,SE,132,5.0,6.0,96,0.00,,,0.48,Wunderground v.1.15,2013-05-16 18:25:00,
2013-05-16 13:30:00,64.6,63.4,29.82,SE,136,4.0,8.0,96,0.00,,,0.48,Wunderground v.1.15,2013-05-16 18:30:00,
2013-05-16 13:32:00,64.5,63.0,29.81,SE,146,8.0,11.0,95,0.00,,,0.48,weatherlink.com 1.10,2013-05-16 18:32:00,
2013-05-16 13:40:00,64.8,63.6,29.82,ESE,117,5.0,5.0,96,0.00,,,0.48,Wunderground v.1.15,2013-05-16 18:40:00,
2013-05-16 13:45:00,64.7,63.2,29.82,SE,130,4.0,5.0,95,0.00,,,0.49,Wunderground v.1.15,2013-05-16 18:45:00,
2013-05-16 13:47:00,64.7,63.0,29.82,ESE,119,2.0,10.0,95,0.01,,,0.49,weatherlink.com 1.10,2013-05-16 18:47:00,
2013-05-16 13:55:00,64.9,63.4,29.82,East,95,4.0,6.0,95,0.00,,,0.49,Wunderground v.1.15,2013-05-16 18:55:00,
2013-05-16 14:00:00,65.0,63.5,29.82,East,98,5.0,7.0,95,0.00,,,0.49,Wunderground v.1.15,2013-05-16 19:00:00,
2013-05-16 14:02:00,65.0,64.0,29.82,SE,134,3.0,8.0,95,0.01,,,0.49,weatherlink.com 1.10,2013-05-16 19:02:00,
2013-05-16 14:10:00,65.2,63.7,29.82,ESE,107,3.0,5.0,95,0.00,,,0.49,Wunderground v.1.15,2013-05-16 19:10:00,
2013-05-16 14:15:00,65.2,63.7,29.82,SE,142,4.0,5.0,95,0.00,,,0.49,Wunderground v.1.15,2013-05-16 19:15:00,
2013-05-16 14:17:00,65.3,64.0,29.82,SE,131,5.0,8.0,95,0.01,,,0.49,weatherlink.com 1.10,2013-05-16 19:17:00,
2013-05-16 14:20:00,65.3,63.8,29.81,East,101,5.0,6.0,95,0.00,,,0.49,Wunderground v.1.15,2013-05-16 19:20:00,
2013-05-16 14:30:00,65.4,63.9,29.81,ESE,120,4.0,4.0,95,0.00,,,0.49,Wunderground v.1.15,2013-05-16 19:30:00,
2013-05-16 14:32:00,65.4,64.0,29.81,SE,135,1.0,9.0,95,0.01,,,0.49,weatherlink.com 1.10,2013-05-16 19:32:00,
2013-05-16 14:40:00,65.5,64.0,29.81,ESE,117,4.0,4.0,95,0.00,,,0.49,Wunderground v.1.15,2013-05-16 19:40:00,
2013-05-16 14:45:00,65.5,64.0,29.81,ESE,118,5.0,7.0,95,0.00,,,0.49,Wunderground v.1.15,2013-05-16 19:45:00,
2013-05-16 14:47:00,65.5,64.0,29.81,ESE,115,3.0,9.0,95,0.00,,,0.49,weatherlink.com 1.10,2013-05-16 19:47:00,
2013-05-16 14:55:00,65.9,64.1,29.81,ESE,119,5.0,5.0,94,0.00,,,0.49,Wunderground v.1.15,2013-05-16 19:55:00,
2013-05-16 15:04:00,65.8,64.0,29.81,East,94,5.0,10.0,94,0.00,,,0.49,weatherlink.com 1.10,2013-05-16 20:04:00,
2013-05-16 15:05:00,65.8,64.0,29.81,East,94,5.0,5.0,94,0.00,,,0.49,Wunderground v.1.15,2013-05-16 20:05:00,
2013-05-16 15:10:00,65.9,64.1,29.81,SE,134,5.0,5.0,94,0.00,,,0.49,Wunderground v.1.15,2013-05-16 20:10:00,
2013-05-16 15:19:00,66.0,64.0,29.81,East,84,5.0,9.0,94,0.00,,,0.49,weatherlink.com 1.10,2013-05-16 20:19:00,
2013-05-16 15:20:00,66.0,64.2,29.81,SE,145,4.0,6.0,94,0.00,,,0.49,Wunderground v.1.15,2013-05-16 20:20:00,
2013-05-16 15:25:00,65.9,64.1,29.81,ESE,117,5.0,6.0,94,0.00,,,0.49,Wunderground v.1.15,2013-05-16 20:25:00,
2013-05-16 15:33:00,65.8,64.0,29.81,East,86,10.0,12.0,93,0.00,,,0.49,weatherlink.com 1.10,2013-05-16 20:33:00,
2013-05-16 15:35:00,65.7,63.9,29.81,SE,130,6.0,9.0,94,0.00,,,0.49,Wunderground v.1.15,2013-05-16 20:35:00,
2013-05-16 15:40:00,65.8,64.0,29.81,ESE,116,5.0,5.0,94,0.00,,,0.49,Wunderground v.1.15,2013-05-16 20:40:00,
2013-05-16 15:45:00,65.7,63.9,29.81,ESE,117,5.0,5.0,94,0.00,,,0.49,Wunderground v.1.15,2013-05-16 20:45:00,
2013-05-16 15:48:00,65.7,64.0,29.81,SE,130,7.0,10.0,94,0.00,,,0.49,weatherlink.com 1.10,2013-05-16 20:48:00,
2013-05-16 15:55:00,65.7,63.9,29.81,East,97,6.0,7.0,94,0.00,,,0.49,Wunderground v.1.15,2013-05-16 20:55:00,
2013-05-16 16:00:00,65.7,63.9,29.81,East,100,6.0,6.0,94,0.00,,,0.49,Wunderground v.1.15,2013-05-16 21:00:00,
2013-05-16 16:04:00,65.7,64.0,29.80,SE,132,5.0,11.0,94,0.00,,,0.49,weatherlink.com 1.10,2013-05-16 21:04:00,
2013-05-16 16:10:00,65.8,64.0,29.80,ESE,107,6.0,6.0,94,0.00,,,0.49,Wunderground v.1.15,2013-05-16 21:10:00,
2013-05-16 16:15:00,65.9,64.1,29.80,SE,145,5.0,6.0,94,0.00,,,0.49,Wunderground v.1.15,2013-05-16 21:15:00,
2013-05-16 16:19:00,65.9,64.0,29.80,East,88,6.0,9.0,94,0.00,,,0.49,weatherlink.com 1.10,2013-05-16 21:19:00,
2013-05-16 16:25:00,66.0,64.2,29.80,ESE,111,5.0,9.0,94,0.00,,,0.49,Wunderground v.1.15,2013-05-16 21:25:00,
2013-05-16 16:30:00,65.9,64.1,29.80,ESE,119,5.0,7.0,94,0.00,,,0.49,Wunderground v.1.15,2013-05-16 21:30:00,
2013-05-16 16:34:00,66.1,64.0,29.80,ESE,106,2.0,9.0,94,0.00,,,0.49,weatherlink.com 1.10,2013-05-16 21:34:00,
2013-05-16 16:40:00,66.2,64.4,29.80,ESE,103,4.0,4.0,94,0.00,,,0.49,Wunderground v.1.15,2013-05-16 21:40:00,
2013-05-16 16:45:00,66.1,64.0,29.80,SE,134,4.0,4.0,93,0.00,,,0.49,Wunderground v.1.15,2013-05-16 21:45:00,
2013-05-16 16:50:00,66.1,64.3,29.80,ESE,110,4.0,4.0,94,0.00,,,0.49,Wunderground v.1.15,2013-05-16 21:50:00,
2013-05-16 16:55:00,66.0,63.9,29.80,SE,140,5.0,6.0,93,0.00,,,0.49,Wunderground v.1.15,2013-05-16 21:55:00,
2013-05-16 17:00:00,66.1,64.3,29.80,SE,132,5.0,5.0,94,0.00,,,0.49,Wunderground v.1.15,2013-05-16 22:00:00,
2013-05-16 17:04:00,66.1,64.0,29.80,SE,125,5.0,7.0,93,0.00,,,0.49,weatherlink.com 1.10,2013-05-16 22:04:00,
2013-05-16 17:10:00,66.2,64.1,29.79,ESE,121,4.0,4.0,93,0.00,,,0.49,Wunderground v.1.15,2013-05-16 22:10:00,
2013-05-16 17:19:00,66.3,64.0,29.79,ESE,108,4.0,10.0,93,0.00,,,0.49,weatherlink.com 1.10,2013-05-16 22:19:00,
2013-05-16 17:25:00,66.3,64.2,29.79,East,88,5.0,7.0,93,0.00,,,0.49,Wunderground v.1.15,2013-05-16 22:25:00,
2013-05-16 17:34:00,66.4,64.0,29.79,ESE,102,2.0,10.0,93,0.00,,,0.49,weatherlink.com 1.10,2013-05-16 22:34:00,
2013-05-16 17:40:00,66.5,64.4,29.79,East,98,6.0,6.0,93,0.00,,,0.49,Wunderground v.1.15,2013-05-16 22:40:00,
2013-05-16 17:45:00,66.7,64.6,29.79,ESE,123,5.0,6.0,93,0.00,,,0.49,Wunderground v.1.15,2013-05-16 22:45:00,
2013-05-16 17:49:00,66.6,65.0,29.79,SE,136,4.0,10.0,93,0.00,,,0.49,weatherlink.com 1.10,2013-05-16 22:49:00,
2013-05-16 17:55:00,66.7,64.6,29.79,ESE,113,4.0,8.0,93,0.00,,,0.49,Wunderground v.1.15,2013-05-16 22:55:00,
2013-05-16 18:00:00,66.7,64.6,29.79,ENE,78,4.0,4.0,93,0.00,,,0.49,Wunderground v.1.15,2013-05-16 23:00:00,
2013-05-16 18:04:00,66.6,65.0,29.79,East,92,5.0,9.0,93,0.00,,,0.49,weatherlink.com 1.10,2013-05-16 23:04:00,
2013-05-16 18:05:00,66.5,64.4,29.79,East,92,4.0,6.0,93,0.00,,,0.49,Wunderground v.1.15,2013-05-16 23:05:00,
2013-05-16 18:10:00,66.6,64.5,29.79,SE,138,3.0,5.0,93,0.00,,,0.49,Wunderground v.1.15,2013-05-16 23:10:00,
2013-05-16 18:19:00,66.6,65.0,29.78,East,90,6.0,10.0,93,0.00,,,0.49,weatherlink.com 1.10,2013-05-16 23:19:00,
2013-05-16 18:25:00,66.7,64.6,29.78,ESE,113,4.0,6.0,93,0.00,,,0.49,Wunderground v.1.15,2013-05-16 23:25:00,
2013-05-16 18:34:00,66.7,65.0,29.78,ESE,114,5.0,9.0,93,0.00,,,0.49,weatherlink.com 1.10,2013-05-16 23:34:00,
2013-05-16 18:40:00,66.7,64.6,29.78,East,94,4.0,5.0,93,0.00,,,0.49,Wunderground v.1.15,2013-05-16 23:40:00,
2013-05-16 18:49:00,66.7,65.0,29.78,ENE,72,4.0,8.0,93,0.00,,,0.49,weatherlink.com 1.10,2013-05-16 23:49:00,
2013-05-16 18:55:00,66.6,64.5,29.78,ESE,113,4.0,7.0,93,0.00,,,0.49,Wunderground v.1.15,2013-05-16 23:55:00,
2013-05-16 19:00:00,66.6,64.5,29.78,East,80,4.0,4.0,93,0.00,,,0.49,Wunderground v.1.15,2013-05-17 00:00:00,
2013-05-16 19:04:00,66.5,65.0,29.78,East,85,6.0,9.0,93,0.00,,,0.49,weatherlink.com 1.10,2013-05-17 00:04:00,
2013-05-16 19:05:00,66.5,64.4,29.78,East,86,5.0,5.0,93,0.00,,,0.49,Wunderground v.1.15,2013-05-17 00:05:00,
2013-05-16 19:10:00,66.4,64.3,29.78,East,83,5.0,6.0,93,0.00,,,0.49,Wunderground v.1.15,2013-05-17 00:10:00,
2013-05-16 19:15:00,66.3,64.2,29.78,ESE,103,5.0,6.0,93,0.00,,,0.49,Wunderground v.1.15,2013-05-17 00:15:00,
2013-05-16 19:19:00,66.3,64.0,29.78,SE,143,3.0,8.0,93,0.00,,,0.49,weatherlink.com 1.10,2013-05-17 00:19:00,
2013-05-16 19:25:00,66.3,64.2,29.78,East,94,3.0,5.0,93,0.00,,,0.49,Wunderground v.1.15,2013-05-17 00:25:00,
2013-05-16 19:30:00,66.3,64.2,29.78,East,99,4.0,5.0,93,0.00,,,0.49,Wunderground v.1.15,2013-05-17 00:30:00,
2013-05-16 19:35:00,66.2,64.1,29.78,East,100,4.0,5.0,93,0.00,,,0.49,Wunderground v.1.15,2013-05-17 00:35:00,
2013-05-16 19:36:00,66.2,65.0,29.79,East,97,6.0,10.0,94,0.00,,,0.49,weatherlink.com 1.10,2013-05-17 00:36:00,
2013-05-16 19:45:00,66.0,64.2,29.79,East,91,5.0,6.0,94,0.00,,,0.49,Wunderground v.1.15,2013-05-17 00:45:00,
2013-05-16 19:50:00,66.0,64.2,29.79,ENE,78,5.0,5.0,94,0.00,,,0.49,Wunderground v.1.15,2013-05-17 00:50:00,
2013-05-16 19:51:00,66.1,64.0,29.79,ENE,78,1.0,9.0,94,0.00,,,0.49,weatherlink.com 1.10,2013-05-17 00:51:00,
2013-05-16 20:00:00,66.2,64.4,29.79,East,81,3.0,3.0,94,0.00,,,0.49,Wunderground v.1.15,2013-05-17 01:00:00,
2013-05-16 20:05:00,66.1,64.3,29.79,East,92,3.0,6.0,94,0.00,,,0.49,Wunderground v.1.15,2013-05-17 01:05:00,
2013-05-16 20:06:00,66.1,64.0,29.79,East,96,7.0,11.0,94,0.00,,,0.49,weatherlink.com 1.10,2013-05-17 01:06:00,
2013-05-16 20:10:00,66.1,64.3,29.80,East,85,4.0,5.0,94,0.00,,,0.49,Wunderground v.1.15,2013-05-17 01:10:00,
2013-05-16 20:15:00,66.0,64.2,29.80,East,94,5.0,5.0,94,0.00,,,0.49,Wunderground v.1.15,2013-05-17 01:15:00,
2013-05-16 20:20:00,66.0,64.5,29.80,East,79,4.0,6.0,95,0.00,,,0.49,Wunderground v.1.15,2013-05-17 01:20:00,
2013-05-16 20:21:00,66.0,65.0,29.80,East,86,3.0,8.0,95,0.00,,,0.49,weatherlink.com 1.10,2013-05-17 01:21:00,
2013-05-16 20:30:00,65.9,64.4,29.80,East,94,4.0,6.0,95,0.00,,,0.49,Wunderground v.1.15,2013-05-17 01:30:00,
2013-05-16 20:35:00,65.8,64.3,29.80,East,88,5.0,7.0,95,0.00,,,0.49,Wunderground v.1.15,2013-05-17 01:35:00,
2013-05-16 20:36:00,65.7,64.0,29.80,ESE,109,8.0,11.0,95,0.00,,,0.49,weatherlink.com 1.10,2013-05-17 01:36:00,
2013-05-16 20:45:00,65.7,64.2,29.80,East,82,6.0,6.0,95,0.00,,,0.49,Wunderground v.1.15,2013-05-17 01:45:00,
2013-05-16 20:50:00,65.7,64.2,29.81,ESE,108,4.0,4.0,95,0.00,,,0.49,Wunderground v.1.15,2013-05-17 01:50:00,
2013-05-16 20:51:00,65.7,64.0,29.81,ESE,115,4.0,7.0,95,0.00,,,0.49,weatherlink.com 1.10,2013-05-17 01:51:00,
2013-05-16 21:00:00,65.6,64.1,29.81,ESE,113,5.0,5.0,95,0.00,,,0.49,Wunderground v.1.15,2013-05-17 02:00:00,
2013-05-16 21:05:00,65.5,64.0,29.81,ESE,104,5.0,5.0,95,0.00,,,0.49,Wunderground v.1.15,2013-05-17 02:05:00,
2013-05-16 21:06:00,65.5,64.0,29.81,East,88,5.0,9.0,95,0.00,,,0.49,weatherlink.com 1.10,2013-05-17 02:06:00,
2013-05-16 21:15:00,65.3,63.8,29.82,ESE,106,5.0,8.0,95,0.00,,,0.49,Wunderground v.1.15,2013-05-17 02:15:00,
2013-05-16 21:20:00,65.2,63.7,29.82,East,97,5.0,6.0,95,0.00,,,0.49,Wunderground v.1.15,2013-05-17 02:20:00,
2013-05-16 21:21:00,65.2,64.0,29.82,ESE,105,9.0,10.0,95,0.00,,,0.49,weatherlink.com 1.10,2013-05-17 02:21:00,
2013-05-16 21:30:00,65.0,63.5,29.82,East,92,7.0,7.0,95,0.00,,,0.49,Wunderground v.1.15,2013-05-17 02:30:00,
2013-05-16 21:36:00,65.1,64.0,29.82,East,92,7.0,11.0,95,0.00,,,0.49,weatherlink.com 1.10,2013-05-17 02:36:00,
2013-05-16 21:45:00,65.1,63.6,29.83,East,82,5.0,6.0,95,0.00,,,0.49,Wunderground v.1.15,2013-05-17 02:45:00,
2013-05-16 21:50:00,65.1,63.6,29.83,East,97,4.0,4.0,95,0.00,,,0.49,Wunderground v.1.15,2013-05-17 02:50:00,
2013-05-16 21:51:00,65.1,64.0,29.83,East,85,6.0,10.0,95,0.00,,,0.49,weatherlink.com 1.10,2013-05-17 02:51:00,
2013-05-16 22:00:00,65.1,63.3,29.83,East,93,4.0,4.0,94,0.00,,,0.49,Wunderground v.1.15,2013-05-17 03:00:00,
2013-05-16 22:06:00,65.1,63.0,29.83,ENE,67,3.0,9.0,94,0.00,,,0.49,weatherlink.com 1.10,2013-05-17 03:06:00,
2013-05-16 22:15:00,65.0,63.5,29.83,East,83,6.0,7.0,95,0.00,,,0.49,Wunderground v.1.15,2013-05-17 03:15:00,
2013-05-16 22:20:00,65.0,63.5,29.83,East,100,7.0,7.0,95,0.00,,,0.49,Wunderground v.1.15,2013-05-17 03:20:00,
2013-05-16 22:21:00,64.9,64.0,29.83,East,92,6.0,11.0,95,0.00,,,0.49,weatherlink.com 1.10,2013-05-17 03:21:00,
2013-05-16 22:30:00,65.0,63.5,29.84,East,90,5.0,8.0,95,0.00,,,0.49,Wunderground v.1.15,2013-05-17 03:30:00,
2013-05-16 22:35:00,64.9,63.4,29.84,East,98,5.0,8.0,95,0.00,,,0.49,Wunderground v.1.15,2013-05-17 03:35:00,
2013-05-16 22:36:00,64.9,64.0,29.84,East,100,5.0,9.0,95,0.00,,,0.49,weatherlink.com 1.10,2013-05-17 03:36:00,
2013-05-16 22:45:00,64.9,63.4,29.84,East,84,5.0,6.0,95,0.00,,,0.49,Wunderground v.1.15,2013-05-17 03:45:00,
2013-05-16 22:51:00,64.8,63.0,29.84,East,92,8.0,13.0,95,0.00,,,0.49,weatherlink.com 1.10,2013-05-17 03:51:00,
2013-05-16 23:00:00,64.8,63.3,29.83,East,96,6.0,6.0,95,0.00,,,0.49,Wunderground v.1.15,2013-05-17 04:00:00,
2013-05-16 23:05:00,64.7,63.2,29.83,East,86,6.0,6.0,95,0.00,,,0.49,Wunderground v.1.15,2013-05-17 04:05:00,
2013-05-16 23:07:00,64.6,63.0,29.83,East,79,5.0,11.0,95,0.00,,,0.49,weatherlink.com 1.10,2013-05-17 04:07:00,
2013-05-16 23:10:00,64.7,63.2,29.83,ESE,103,6.0,8.0,95,0.00,,,0.49,Wunderground v.1.15,2013-05-17 04:10:00,
2013-05-16 23:15:00,64.5,63.0,29.83,East,83,6.0,8.0,95,0.00,,,0.49,Wunderground v.1.15,2013-05-17 04:15:00,
2013-05-16 23:20:00,64.5,63.0,29.83,East,83,6.0,6.0,95,0.00,,,0.49,Wunderground v.1.15,2013-05-17 04:20:00,
2013-05-16 23:21:00,64.5,63.0,29.83,ESE,116,4.0,10.0,95,0.00,,,0.49,weatherlink.com 1.10,2013-05-17 04:21:00,
2013-05-16 23:25:00,64.4,62.9,29.83,East,89,6.0,6.0,95,0.00,,,0.49,Wunderground v.1.15,2013-05-17 04:25:00,
2013-05-16 23:30:00,64.3,63.1,29.83,East,85,6.0,6.0,96,0.00,,,0.49,Wunderground v.1.15,2013-05-17 04:30:00,
2013-05-16 23:37:00,64.2,63.0,29.83,ESE,103,2.0,11.0,96,0.00,,,0.49,weatherlink.com 1.10,2013-05-17 04:37:00,
2013-05-16 23:45:00,64.1,62.9,29.83,ENE,71,7.0,8.0,96,0.00,,,0.49,Wunderground v.1.15,2013-05-17 04:45:00,
2013-05-16 23:50:00,64.1,62.9,29.83,East,99,7.0,7.0,96,0.00,,,0.49,Wunderground v.1.15,2013-05-17 04:50:00,
2013-05-16 23:52:00,64.1,63.0,29.82,East,98,5.0,13.0,96,0.00,,,0.49,weatherlink.com 1.10,2013-05-17 04:52:00,